Temp
19 20 20 19 19 19 19 19 19 19 19 19 19 19 19 18 18 18 18 18 18 18 18 18 18 18 18 18 18 18 18 18 18 19 19 19 19 18 18 18 18 18 19
20 20 20 20 19 18 18 19 19 19 19 19 19 19 18 19 18 18 18 18 18 18 18 18 18 17 18 17 18 18 18 18 18 18 18 19 19 19 19 18 18 18 18
20 19 20 19 18 18 19 19 18 18 18 17 17 17 17 16 16 16 17 17 17 16 17 16 17 17 17 17 17 17 17 17 18 18 18 19 19 19 19 19 19 19 18
20 19 19 19 18 18 18 18 18 18 18 17 16 16 17 17 17 17 18 18 18 17 17 17 18 18 18 18 18 17 17 17 17 17 18 18 18 18 18 19 19 18 18
19 19 19 19 18 18 18 18 17 18 17 17 17 17 17 17 16 16 17 16 15 15 14 15 15 15 16 17 17 17 17 17 17 17 17 18 18 18 18 18 18 18 18
19 19 19 19 18 18 18 18 18 18 18 18 17 17 15 15 14 14 14 14 14 14 14 15 15 15 15 15 15 15 16 17 18 18 17 17 18 18 18 18 18 18 18
18 18 19 19 18 18 18 18 18 18 18 16 15 15 15 14 14 14 14 14 14 14 14 15 15 14 14 14 15 15 16 16 17 17 18 18 18 18 18 18 18 18 17
18 18 18 18 17 18 18 18 18 18 16 15 15 14 14 14 14 14 14 14 14 14 14 14 14 14 14 14 14 15 16 16 16 16 17 18 18 18 17 18 17 17 17
17 18 17 17 17 18 18 19 18 16 15 14 14 15 14 14 14 14 13 13 13 13 13 13 13 14 14 14 15 15 15 16 16 15 15 16 16 16 16 16 16 17 16
17 17 17 17 17 18 18 18 17 16 16 16 15 15 15 15 15 15 15 14 14 13 13 13 13 14 14 14 14 15 15 15 15 15 15 15 16 16 16 16 16 16 16
16 16 17 17 18 18 17 16 16 16 16 16 15 15 15 15 14 14 15 14 14 14 14 14 14 14 14 14 14 14 14 15 15 15 15 15 15 16 15 15 15 15 15
15 16 17 17 17 17 16 16 16 16 15 15 15 15 15 15 15 14 14 14 14 14 14 14 14 14 14 14 14 14 14 14 14 14 14 14 14 15 15 14 14 14 14
16 16 17 17 17 17 16 16 16 16 15 15 15 15 15 15 14 15 14 14 14 14 14 14 14 14 14 14 14 14 13 13 13 13 13 13 13 14 14 14 14 14 14
15 16 16 16 17 16 16 15 15 15 15 15 15 15 15 15 15 15 14 14 14 14 14 14 13 13 13 13 14 13 13 13 13 13 13 13 12 12 13 13 13 13 13
15 16 16 16 16 16 16 15 15 15 15 15 15 15 15 15 15 14 14 14 14 13 14 13 13 13 13 13 13 13 12 12 12 12 12 12 11 11 12 12 12 12 12
16 16 16 16 16 16 16 15 15 15 15 15 15 14 15 15 14 14 14 14 13 13 13 13 13 13 13 13 13 13 12 12 12 12 11 11 11 10 10 11 11 11 11
16 16 16 16 15 15 15 15 15 15 14 14 14 14 14 14 14 14 13 13 13 13 13 13 13 13 13 12 12 12 12 12 12 12 11 11 11 10 9 9 9 9 9
16 16 16 15 15 15 15 15 15 14 14 14 14 14 14 14 14 13 13 13 13 13 13 13 13 13 13 12 12 12 12 11 11 11 11 11 10 10 10 10 9 8 8
16 16 16 15 15 15 15 14 14 14 14 14 13 14 14 13 13 13 13 13 13 13 13 13 13 13 12 12 12 11 11 11 11 11 11 11 10 10 10 10 9 9 8
15 15 15 15 15 15 14 14 14 13 13 14 13 13 13 13 13 13 13 13 13 13 13 12 12 12 12 11 12 11 11 11 11 10 10 10 10 10 9 9 9 9 9
14 14 14 15 14 14 14 13 13 13 13 13 13 13 13 13 13 13 13 13 12 12 12 12 12 12 11 11 12 12 11 10 10 10 10 10 10 10 9 9 9 8 8
14 14 14 14 14 14 14 14 14 14 13 13 13 13 13 13 13 13 12 12 12 12 11 11 11 11 11 10 10 8 6 9 10 10 10 10 10 9 9 8 8 8 8
14 14 14 15 15 14 13 13 14 13 13 13 13 13 13 13 13 12 12 12 11 11 11 11 11 10 10 10 10 9 7 7 6 10 9 9 9 9 9 8 8 8 8
14 14 14 15 14 14 13 13 14 14 13 13 13 13 13 13 12 12 12 12 12 11 11 11 10 10 9 9 9 9 9 8 6 6 9 9 9 9 9 8 8 7 7
14 15 15 14 14 14 14 13 13 13 13 13 13 13 13 12 12 12 12 12 11 11 10 10 10 10 9 9 9 8 8 8 7 5 4 7 9 9 9 8 8 7 7
14 14 14 14 14 14 13 13 13 13 13 13 13 13 12 12 12 12 11 11 11 11 10 10 10 9 9 9 8 8 8 7 7 6 3 4 5 7 8 8 8 8 7
Height
805 809 813 816 818 820 822 823 825 826 826 827 828 828 828 829 829 829 828 828 828 828 828 827 827 827 826 826 825 825 824 824 824 823 823 822 822 823 823 822 821 821 821
802 808 812 815 818 820 823 824 826 827 828 828 829 829 829 830 830 830 829 829 828 829 828 828 827 827 826 826 825 825 825 824 824 823 823 823 822 823 823 822 822 821 821
803 809 812 815 818 821 823 825 826 828 828 829 829 829 830 830 830 830 829 829 828 828 827 827 827 826 825 825 825 825 825 824 824 823 823 823 822 822 822 822 821 821 821
804 809 813 816 818 821 824 826 827 828 829 830 830 830 830 830 830 830 830 829 829 828 828 827 827 826 825 825 824 824 824 824 823 823 823 823 822 822 822 822 821 821 821
806 810 814 816 819 822 824 826 828 829 830 831 831 831 831 830 831 830 830 830 829 829 829 828 827 826 825 824 824 823 823 822 822 822 822 822 822 822 822 821 821 821 821
808 812 815 818 820 822 824 826 828 829 830 831 832 832 832 831 831 831 831 831 831 831 831 830 829 828 827 826 825 824 822 822 821 821 821 821 821 821 821 821 820 821 821
810 814 817 820 822 823 825 827 828 830 831 832 833 833 833 833 833 833 833 832 832 832 831 831 830 829 827 827 826 825 824 822 821 820 820 820 820 820 821 820 819 820 820
811 815 818 820 823 824 826 828 829 830 832 833 834 835 835 834 835 834 834 834 833 833 832 832 831 829 828 828 826 825 825 823 822 821 820 819 820 821 820 820 819 820 819
813 816 817 820 823 825 827 828 829 831 832 834 835 836 836 836 836 835 835 835 834 833 833 832 831 830 828 828 827 826 826 825 824 823 822 822 822 821 821 820 820 820 820
813 817 818 821 823 826 827 828 830 832 833 835 836 837 837 837 836 836 835 835 835 834 833 832 831 830 829 828 828 827 827 826 826 825 825 824 824 824 823 822 821 821 821
813 817 819 821 824 826 828 830 831 833 834 836 837 837 838 838 837 837 836 836 835 835 834 832 831 830 829 829 829 828 828 827 827 827 827 826 826 826 824 823 821 821 821
813 817 819 821 824 827 829 831 832 834 835 837 838 839 838 839 838 838 838 837 836 836 835 833 832 831 830 829 830 830 829 829 829 828 828 828 827 828 827 825 824 823 822
813 817 819 822 825 827 829 832 834 834 836 837 839 840 840 839 839 838 839 837 837 837 835 834 833 832 831 830 831 831 831 831 831 830 831 830 828 828 829 827 825 823 823
813 817 820 823 825 828 830 833 835 836 836 837 839 840 841 840 840 839 840 837 838 838 836 834 833 832 832 832 832 833 833 833 833 833 833 831 829 829 829 828 827 825 824
812 816 820 824 826 828 831 833 835 836 837 837 839 841 841 840 841 841 840 838 839 839 837 836 835 833 833 833 833 834 835 835 835 835 834 832 831 831 831 830 829 827 825
811 814 819 824 826 829 831 833 835 836 837 838 840 841 841 841 841 842 841 841 841 840 838 837 836 835 835 835 835 835 836 836 836 836 836 834 832 832 833 832 831 829 827
809 813 818 822 826 829 831 834 835 837 837 839 841 842 841 842 842 843 842 843 841 841 840 839 837 837 836 837 836 836 836 837 837 837 836 835 833 833 833 832 831 830 829
807 813 818 822 824 828 831 834 835 837 838 840 841 842 843 843 843 844 844 843 843 843 840 839 838 837 837 837 837 836 836 838 838 838 837 836 834 834 833 832 831 830 829
807 812 817 821 823 826 830 833 835 837 839 840 841 842 843 844 844 845 845 843 842 842 841 840 839 838 837 837 837 837 836 838 838 838 837 836 835 835 834 834 832 830 828
809 813 817 821 823 825 829 833 835 837 839 840 841 842 843 843 843 844 844 843 842 841 841 840 840 838 837 837 836 836 836 837 837 838 837 837 836 835 835 834 832 831 830
809 813 817 819 824 824 829 832 835 836 838 839 840 842 842 842 843 843 843 843 842 841 840 839 839 838 837 837 836 836 835 835 836 836 835 835 835 835 834 834 833 831 831
807 810 816 819 821 824 830 832 834 836 837 838 839 840 841 842 842 842 842 842 842 842 840 838 838 837 837 837 836 836 837 836 835 835 834 834 835 835 834 833 833 832 830
802 810 814 815 817 824 830 832 832 835 836 837 838 839 840 841 841 841 841 842 841 841 839 838 838 837 837 837 837 838 838 840 837 833 833 833 834 834 834 833 832 831 830
806 810 814 813 820 822 829 831 831 833 834 835 836 837 838 839 840 840 840 839 839 838 838 838 838 837 837 837 837 838 837 838 839 837 832 831 831 831 832 831 829 829 829
806 806 810 814 818 820 826 828 830 831 833 832 834 836 837 837 838 838 838 838 837 837 837 836 836 836 835 836 836 836 835 835 835 836 836 831 830 829 828 827 827 826 825
801 803 810 812 814 820 823 825 827 830 830 830 833 835 836 836 836 836 835 835 834 834 833 833 833 833 833 833 834 834 833 834 833 834 835 831 828 825 826 824 822 821 822
Wind_Speed
20 25 20 18 14 15 12 12 12 11 9 9 8 8 8 9 8 8 10 10 10 10 12 10 8 9 8 8 8 8 8 8 8 8 7 5 4 5 5 7 9 8 6
31 25 21 19 17 14 13 13 12 9 11 12 9 7 7 6 5 6 5 5 5 6 5 7 7 8 9 8 8 9 8 8 7 7 7 5 5 6 4 5 7 7 5
30 25 21 20 18 15 14 13 14 12 11 10 10 10 11 10 9 8 7 6 6 7 7 7 7 7 6 6 6 7 9 7 4 5 6 3 4 6 5 3 5 5 5
28 25 23 19 17 16 14 13 12 10 10 9 8 7 6 5 5 4 4 4 5 6 6 6 7 7 7 7 8 8 6 6 6 4 4 4 4 6 7 5 5 5 6
28 25 22 19 18 18 14 12 11 8 6 5 5 5 6 5 6 6 6 7 8 9 10 10 10 9 9 8 7 7 8 8 7 6 5 5 6 6 8 6 6 5 6
26 24 20 20 20 16 14 11 9 7 6 5 5 6 8 9 10 10 10 10 11 11 11 11 11 11 12 12 10 10 8 8 9 8 7 6 6 6 8 9 9 7 7
25 22 21 17 16 16 12 10 8 7 6 7 9 10 11 11 11 11 11 11 11 10 11 11 10 10 11 12 13 11 10 10 10 8 7 7 7 7 8 10 7 6 7
26 24 21 17 15 13 11 8 7 7 9 11 11 10 11 11 11 11 10 10 11 11 10 10 11 11 10 11 11 11 11 11 13 15 10 5 4 6 5 6 3 5 7
26 25 22 18 15 11 10 8 8 10 12 10 10 8 9 9 9 10 11 11 11 11 10 10 11 10 10 10 10 10 10 9 11 14 18 16 11 11 10 11 10 10 11
25 22 20 17 14 12 11 10 11 11 9 8 7 7 7 7 8 9 10 10 10 10 10 11 10 9 9 9 10 11 9 10 12 13 15 15 13 11 10 10 10 11 11
23 21 19 16 14 13 13 12 11 10 9 8 7 6 7 7 8 9 9 9 10 9 9 10 10 9 9 8 9 10 9 11 11 13 14 15 16 12 14 13 14 14 13
23 20 17 16 15 14 13 11 10 9 8 7 7 6 6 6 7 8 9 9 10 10 10 10 10 9 9 9 9 8 10 11 11 12 12 13 13 11 12 13 13 14 13
24 20 18 17 15 13 12 10 9 8 8 7 6 5 5 6 7 8 8 10 11 11 11 11 11 11 10 10 10 9 10 10 12 13 13 13 13 11 9 12 11 10 10
24 20 18 16 14 12 10 10 8 7 8 7 7 6 5 6 7 9 8 11 11 12 13 13 12 12 11 11 10 9 9 10 12 12 13 14 13 12 12 12 14 13 14
23 20 16 14 13 12 11 10 8 7 7 8 7 6 6 6 7 8 9 11 10 12 13 13 13 13 12 11 8 7 8 10 11 12 13 14 14 14 12 12 12 13 14
22 20 17 15 12 12 10 9 8 7 7 7 7 7 6 7 7 6 8 9 10 12 13 13 13 13 10 10 9 9 8 6 8 9 11 12 13 13 13 12 12 12 13
22 20 18 15 13 12 10 9 8 7 7 7 6 6 6 6 6 6 7 7 10 11 12 11 11 12 8 7 7 7 6 5 6 8 10 12 13 13 13 13 12 13 13
24 21 18 16 15 13 11 9 8 7 6 6 6 5 5 5 6 5 6 7 8 9 10 10 10 10 12 6 4 4 4 3 4 6 8 10 11 12 14 14 13 12 12
23 22 19 17 15 13 11 9 8 7 6 5 5 4 3 3 4 5 5 6 7 8 8 9 10 10 11 11 3 1 2 1 1 2 4 6 8 9 11 13 13 13 12
20 19 18 16 14 13 11 10 8 7 6 5 4 3 1 1 3 3 4 5 6 7 7 9 10 10 9 14 5 1 4 3 2 2 1 2 4 5 7 9 12 13 12
19 18 17 17 16 13 14 11 8 7 7 6 5 3 1 0 2 3 5 5 6 7 8 10 10 10 8 13 6 4 1 4 4 4 4 4 4 4 5 7 10 11 11
21 19 18 16 14 13 13 10 4 6 7 6 6 5 3 2 1 3 5 6 6 6 7 8 9 8 5 8 5 2 3 1 3 8 7 6 6 6 6 6 7 8 9
19 21 21 18 15 14 12 11 6 5 4 7 6 5 4 3 3 4 5 6 6 7 7 7 7 6 5 3 6 2 2 1 5 2 3 5 6 7 8 8 8 8 7
21 20 19 15 16 14 15 13 9 7 6 5 5 5 4 4 4 5 7 8 9 9 9 8 7 6 6 5 4 1 2 2 1 4 2 4 7 8 8 9 11 10 7
23 19 16 16 15 14 17 14 11 9 7 5 6 6 5 6 5 5 6 7 9 10 10 10 9 8 7 7 6 4 3 4 7 5 3 4 8 11 11 11 11 12 9
15 16 18 16 15 17 17 14 13 11 8 8 8 8 7 6 4 5 7 8 9 9 9 10 11 10 9 10 9 9 9 5 3 4 3 5 7 11 12 14 9 10 11
Wind_Direction
166 160 161 152 148 139 131 123 111 105 98 88 80 76 76 73 68 64 62 62 59 51 45 38 31 26 21 10 8 8 14 17 20 20 19 20 18 12 12 16 21 23 23
157 157 160 153 144 135 133 125 121 117 104 93 87 84 77 72 62 45 45 43 35 29 20 17 14 22 26 22 12 355 351 355 359 3 4 12 17 5 345 344 4 14 14
153 155 155 151 140 138 134 128 123 124 105 95 90 84 75 70 61 53 38 25 23 18 14 6 358 344 337 346 352 1 10 2 334 339 343 341 355 358 343 330 350 5 10
151 156 154 153 145 136 133 130 120 113 103 99 95 90 81 68 57 42 17 6 5 4 2 354 344 332 324 318 319 325 321 321 347 334 323 318 310 328 329 294 323 347 352
153 157 154 153 139 142 145 133 126 123 116 112 103 91 81 69 61 54 46 43 42 38 35 32 27 16 4 346 330 317 310 305 304 303 306 305 296 307 334 289 283 287 326
155 155 151 146 149 147 138 136 132 126 120 109 96 89 81 72 68 64 60 60 55 52 47 41 38 34 29 23 19 12 349 330 312 297 288 289 291 294 311 320 272 284 317
153 150 149 153 145 140 141 137 131 124 111 100 95 90 87 75 73 68 63 58 48 46 40 36 40 35 30 29 29 22 14 11 357 335 299 286 294 309 318 321 312 283 305
153 152 152 152 142 143 141 137 129 121 110 103 98 91 88 79 71 68 59 53 53 46 44 40 37 35 35 33 31 30 27 35 51 49 38 12 3 10 4 18 12 337 340
156 152 147 150 148 144 138 133 123 116 112 108 103 94 94 84 69 65 62 53 51 47 44 42 37 37 39 33 33 34 36 48 56 61 62 59 62 52 42 49 41 32 30
154 157 150 149 145 143 136 135 127 122 116 119 113 94 92 82 67 62 56 49 46 45 44 40 39 44 42 40 40 46 57 64 65 65 62 51 46 42 37 42 38 30 24
151 153 149 147 143 141 137 134 126 119 113 113 118 101 97 81 70 60 55 49 48 45 43 41 44 49 52 43 45 58 66 67 63 65 64 55 46 40 41 47 49 44 42
151 150 149 148 144 143 139 135 127 120 118 116 116 106 95 82 71 61 55 53 52 50 49 50 48 51 52 51 53 60 70 71 64 63 57 46 42 31 26 37 44 43 44
156 150 148 148 147 147 144 142 132 123 121 119 116 103 93 85 72 63 58 57 51 50 49 51 51 48 53 55 59 62 77 73 72 65 53 40 37 38 34 44 53 53 47
157 153 149 152 153 152 151 150 140 132 123 123 114 106 94 81 73 61 55 57 48 46 46 46 45 46 55 55 59 69 82 83 76 65 54 36 41 51 49 42 41 47 47
160 157 158 163 165 162 158 155 150 137 130 120 115 111 96 83 68 57 56 55 49 45 45 45 43 48 57 53 62 75 90 89 71 61 48 40 54 54 46 44 41 38 40
160 157 161 165 164 165 166 163 154 142 135 124 118 110 94 78 66 59 57 54 49 43 42 42 44 44 60 64 71 89 100 77 67 54 43 48 54 57 48 41 37 32 32
166 164 166 168 169 171 167 164 156 151 140 132 123 107 89 75 67 56 54 49 48 41 43 44 49 48 61 64 85 99 89 78 68 47 46 57 60 57 50 44 39 35 33
167 170 170 175 171 172 169 169 164 158 151 145 136 113 88 65 56 46 43 43 40 33 36 36 41 46 43 49 81 102 100 89 65 56 56 59 56 55 46 43 41 41 37
172 172 174 176 172 170 170 175 171 171 164 161 156 124 91 61 51 35 25 33 29 23 24 26 27 29 28 26 15 182 151 167 38 76 61 57 51 47 42 38 34 31 39
175 174 174 175 171 167 172 177 178 181 183 179 180 152 114 55 34 15 7 11 14 11 11 16 19 23 20 10 16 321 232 233 264 261 326 12 23 25 29 30 30 30 31
178 173 179 175 180 175 178 177 193 201 200 193 195 199 199 335 342 351 347 349 353 356 3 5 7 16 22 11 23 358 231 235 249 267 261 266 288 321 349 10 21 22 23
176 179 185 186 184 187 197 189 188 201 213 206 205 213 226 249 285 325 330 338 342 344 351 355 357 7 9 17 24 22 6 333 248 260 264 255 265 283 308 328 354 6 13
178 190 195 191 187 198 203 202 197 193 196 206 206 213 228 238 262 284 305 315 320 328 338 338 334 340 344 354 7 14 38 294 324 296 270 268 279 281 291 301 311 329 341
201 199 204 191 201 196 211 215 210 218 218 213 204 199 212 234 255 276 287 295 300 302 306 315 319 318 315 322 337 256 274 263 191 329 313 292 271 292 297 296 294 294 301
205 196 198 201 204 206 214 219 221 227 230 209 208 219 226 241 257 277 299 306 306 301 291 287 290 290 286 279 274 269 261 252 241 208 278 301 297 296 298 294 292 283 268
205 196 205 206 208 212 213 219 223 231 225 219 221 231 246 250 257 279 301 310 311 303 293 283 273 270 270 266 266 260 252 243 230 218 241 278 276 300 299 296 285 269 257